Location: *
(44.1392°N, 4.8079°E)
Time: 07:19:46
(UTC+00:00)

OE (NEXTSAT) - Pass Details

Date: 21 June 2021
Orbit: 425 x 430 km, 46.0° (Epoch: 02 August)

Event Time Altitude Azimuth Distance (km) Brightness Sun altitude
Exits shadow 00:39:58 74° 23° (NNE) 449 4.4 -21.2°
Drops below altitude 10° 00:43:14 10° 75° (ENE) 1,521 7.4 -21.0°
Sets 00:45:21 0° 77° (ENE) 2,387 8.5 -20.9°
